COSMOS 2251 DEB, 33922

Orbit data source: Space-Track

COSMOS 2251 DEB, 33922 is space debris in LEO originally from a launch on Wed, 16 Jun 1993 UTC launched from the Plesetsk Missile And Space Complex (PKMTR). The debris from Iridium 33, an American commercial communications satellite, has been tracked extensively since its accidental collision with the defunct Russian satellite Cosmos 2251 in 2009. This event, occurring at high speed in low Earth orbit (LEO), generated thousands of pieces of space debris, significantly increasing the risk of further collisions. The Iridium 33 debris cloud has impacted space traffic management and orbital debris mitigation strategies, making it a subject of ongoing study in space situational awareness.

Loading next visibility...
Identifier
33922, 1993-036EB
Orbit
LEO
Country
Flag of CISCIS
Related business
Manufacturer
Unknown
Mission
Spacecraft
Bus & Motor
Unknown
Mass
Unknown
Launch date (UTC)
1993-06-16 (33 years ago)
Launch vehicle
Unknown
Launch site
Plesetsk Missile And Space Complex (PKMTR)
Object type
Payload
Rocket body
Debris
Shape & HBR
Unknown shape, 0.1 m
Radar Cross Section
Medium (>0.1 m² and <1 m²)

Expand to show TLE details & history
Last TLE update: 14 hours ago

TLE from 14 hours ago
0 COSMOS 2251 DEB
1 33922U 93036EB  26257.25206293  .00000853  00000-0  22557-3 0  9991
2 33922  74.0493 350.8012 0022292  28.3830   2.1519 14.50245078925716
Epoch: 2026-09-14T06:02Z
TLE epoch observation values (Epoch: 2026-09-14T06:02:58.237Z)
Latitude
29.30699°
Longitude
-83.99422°
Altitude
712.366 km
Speed
7.511 km/s
True Right ascension
23h 59m 56s
True Declination
29° 09' 34"
Sunlit
Object was in full shadow at epoch
Visualization orbit readout
Latitude
Unknown
Longitude
Unknown
Altitude
Unknown
Speed
Unknown
Apparent Right ascension
Unknown
Apparent Declination
Unknown
Sunlit
N/A
Visualization observer readout
Local Sidereal Time
12:14:45
Azimuth
Unknown
Elevation
Unknown
Doppler factor
Unknown
Orbital elements
Apogee altitude
738.284 km
Perigee altitude
706.627 km
Semi-major axis
7,100.592 km
Eccentricity
0.00223
Inclination
74.0493°
RAAN
350.8012°
Arg. of periapsis
28.383°
True anomaly
2.16152°
Mean anomaly
2.1519°
Eccentric anomaly
2.15671°
Mean motion
3.62745 °/min
Orbital period
99.24 mins
BSTAR
0.00022557
Loading maneuver chart data...
Computing Atmospheric mass density...

Documentation

Showing up to 5 results
|